Seretse Khama, Botswana

12:38 AM CAT on March 30, 2017 (GMT +0200)
Sir Seretse Khama International

Weather History for FBSK - October, 2012

Change the Weather History Date:

Sunday, October 7, 2012

  Actual Average Record
Temperature  
Mean Temperature 78 °F -  
Max Temperature 96 °F 85 °F 100 °F (2016)
Min Temperature 61 °F 60 °F 48 °F (2011)
Cooling Degree Days 14    
Growing Degree Days 28 (Base 50)    
Moisture  
Dew Point 25 °F    
Average Humidity 14    
Maximum Humidity 27    
Minimum Humidity 4    
Precipitation  
Precipitation 0.00 in - - ()
Sea Level Pressure  
Sea Level Pressure 30.00 in    
Wind  
Wind Speed 7 mph ()    
Max Wind Speed 14 mph    
Max Gust Speed -    
Visibility 6.0 miles    
Events      
Averages and records for this station are not official NWS values.
T = Trace of Precipitation, MM = Missing Value Source: Averaged Metar Reports

Daily Weather History Graph

Daily Weather History Graph

Search for Another Location

Airport or City:

Trip Planner

Search our weather history database for the weather conditions in past years. The results will help you decide how hot, cold, wet, or windy it might be!

Date:

Astronomy

Oct. 07, 2012 Rise Set
Actual Time 5:50 AM CAT 6:18 PM CAT
Civil Twilight 5:27 AM CAT 6:41 PM CAT
Nautical Twilight 5:00 AM CAT 7:08 PM CAT
Astronomical Twilight 4:33 AM CAT 7:35 PM CAT
Moon No Moon Rise 10:48 AM CAT (10/7)
Length of Visible Light 13h 14m
Length of Day
12h 28m
Waning Gibbous, 58% of the Moon is Illuminated
Oct 7
Waning Gibbous
Oct 8
Last Quarter
Oct 15
New
Oct 22
First Quarter
Oct 29
Full

Hourly Weather History & Observations

Time (CAT) Temp. Dew Point Humidity Pressure Visibility Wind Dir Wind Speed Gust Speed Precip Events Conditions
12:00 AM 71.6 °F 24.8 °F 17% 30.01 in - ENE 6.9 mph - N/A   Clear
1:00 AM 71.6 °F 23.0 °F 16% 30.01 in - NE 8.1 mph - N/A   Clear
2:00 AM 67 °F 25 °F 11%  in 6 mi ENE 8.1 mph - -  
2:00 AM 66.2 °F 24.8 °F 21% 30.01 in - ENE 8.1 mph - N/A   Clear
3:00 AM 68.0 °F 24.8 °F 20% 30.01 in - East 9.2 mph - N/A   Clear
4:00 AM 64.4 °F 26.6 °F 24% 30.01 in - East 8.1 mph - N/A   Clear
5:00 AM 60.8 °F 26.6 °F 27% 30.04 in - SSE 3.5 mph - N/A   Clear
6:00 AM 60.8 °F 26.6 °F 27% 30.04 in - SE 5.8 mph - N/A   Clear
7:00 AM 66.2 °F 30.2 °F 26% 30.06 in - SE 6.9 mph - N/A   Clear
8:00 AM 73 °F 34 °F 14%  in 6 mi ENE 11.5 mph - -  
8:00 AM 73.4 °F 33.8 °F 23% 30.09 in - ENE 11.5 mph - N/A   Clear
9:00 AM 80.6 °F 37.4 °F 21% 30.06 in - NNE 13.8 mph - N/A   Clear
10:00 AM 82.4 °F 35.6 °F 19% 30.06 in - NNE 13.8 mph - N/A   Clear
11:00 AM 87.8 °F 33.8 °F 15% 30.04 in - NE 11.5 mph - N/A   Clear
12:00 PM 89.6 °F 32.0 °F 13% 30.01 in - NE 10.4 mph - N/A   Clear
1:00 PM 89.6 °F 28.4 °F 11% 30.01 in - NE 10.4 mph - N/A   Clear
2:00 PM 94 °F 24 °F 4%  in 6 mi NE 10.4 mph - -  
2:00 PM 95.0 °F 24.8 °F 8% 29.95 in - NE 10.4 mph - N/A   Clear
3:00 PM 95.0 °F 21.2 °F 7% 29.92 in - East 6.9 mph - N/A   Clear
4:00 PM 96.8 °F 19.4 °F 6% 29.92 in - Variable 2.3 mph - N/A   Clear
5:00 PM 95.0 °F 14.0 °F 5% 29.92 in - NE 6.9 mph - N/A   Clear
6:00 PM 91.4 °F 19.4 °F 7% 29.92 in - NE 4.6 mph - N/A   Clear
7:00 PM 84.2 °F 19.4 °F 9% 29.95 in - ENE 6.9 mph - N/A   Clear
8:00 PM 83 °F 21 °F 4%  in 6 mi NNE 4.6 mph - -  
8:00 PM 82.4 °F 21.2 °F 10% 29.95 in - NNE 4.6 mph - N/A   Clear
9:00 PM 78.8 °F 21.2 °F 12% 29.98 in - NE 5.8 mph - N/A   Clear
10:00 PM 75.2 °F 19.4 °F 12% 29.98 in - NE 4.6 mph - N/A   Clear
11:00 PM 73.4 °F 21.2 °F 14% 29.98 in - NE 8.1 mph - N/A   Clear